星链-1030 (STARLINK-1030 )

导读 | 豆包AI

STARLINK-1030是美国SpaceX星链互联网卫星星座中的一颗卫星,于2019年11月11日发射,属于星链项目早期组网卫星,主要承担低轨卫星互联网信号传输任务,为全球偏远地区、海上航空等场景提供宽带接入服务,是星链大规模星座构建进程中的组成单元。

Basic Information
目录编号:
44735
目录名称:
STARLINK-1030
国际标识:
2019-074Y
轨道中心:
EARTH
卫星名称:
星链-1030
卫星全名:
星链-1030 (STARLINK-1030 )
卫星状态:
已陨落 最后检测时间 2025-09-19
发射日期:
2019-11-11 UTC
国别 :
美国 (US)
星等 :
--
Orbit Information
数据来源 国际轨道数据
星历时间: 2025-09-19T17:13:15+0800
轨道信息已过期175天
半长轴: 6525.295km
偏心率: 0.0006753
轨道倾角: 53.028°
近地点辐角 236.612°
升交点赤经 194.031°
平近点角 123.428°
近地点: 142.753km
远地点: 151.567km
周期: 87.430分钟
每日圈数: 16.470342
Detailed Information
固有亮度:
5
最大亮度:
2.5
卫星平台:
Starlink V1.0
覆盖范围:
全球
运营商:
太空探索技术公司
运营商所在国:
美国
制造商(研发单位):
太空探索技术公司
制造商所在国:
美国
使用方式:
暂无
Satellite Introduction
星链(Starlink)计划是由太空探索技术公司(SpaceX)提出的一个巨型低轨卫星互联网星座项目,计划在2019年至2024年间在太空搭建由约1.2万颗卫星组成的“星链”网络,其中1584颗将部署在地球上空550千米处的近地轨道,并从2020年开始工作。该卫星仍在工作。